Погода в Куеде

Россия / Пермский край     56°25′48″N   55°35′28″E
темп.,
°C
ветер,
м/с
пор.,
м/с
влажн.,
%
обл.,
%
осадки,
мм/ч
давл.,
гПа
погр.,
м
26 февраля, пт
пт2623:00−27юв33968 0.0 102838
02:00−28юв34960 0.0 102769
05:00−29юв45970 0.0 102780
08:00−29юв469727 0.0 102688
11:00−24юв469760 0.0 1025252
14:00−19ююв5793100 0.0 1024420
17:00−17ююв5991100 0.0 1022477
20:00−19юв4109690 0.0 1020189
27 февраля, сб
сб2723:00−20юв4109660 0.0 1018196
02:00−17юв7159294 0.0 1014591
05:00−16юв7148997 0.0 1011592
08:00−15юв71395100 0.4 1007653
11:00−13юв71194100 1.4 1005755
14:00−11юв6892100 0.8 1004815
17:00−10вюв5792100 1.1 1004657
20:00−12в51093100 0.3 1004323
28 февраля, вс
вс2823:00−15всв5109296 0.3 1005268
02:00−16всв5109287 0.0 1004288
05:00−15всв5109292 0.1 1005317
08:00−16св5109292 0.0 1005303
11:00−14св6109296 0.1 1006391
14:00−12св699091 0.1 1006502
17:00−12св6108995 0.2 1008546
20:00−16ссв6129092 0.0 1010359
1 марта, пн
пн123:00−18св5119176 0.0 1012287
02:00−20ссв5109218 0.0 1014214
05:00−22ссв48929 0.0 1016175
08:00−24ссв47930 0.0 1018137
11:00−20св47900 0.0 1020263
14:00−14ссв35840 0.0 1021445
17:00−13ссз358823 0.0 1022426
20:00−19сз229428 0.0 102220
2 марта, вт
вт223:00−21юз119815 0.0 102320
02:00−21юз3310029 0.0 102132
05:00−21юз4710063 0.0 1020126
08:00−19ююз51196100 0.0 1017273
11:00−17ююз71193100 0.0 1014406
14:00−13ююз71194100 0.4 1012519
17:00−11ююз71194100 1.1 1010643
20:00−11ююз51095100 0.9 1008609